Location: Harwich
(41.7160°N, 69.9939°W)
Time: 05:23:04
(UTC+02:00)

JY1SAT - Visible Passes

Search period start: 19 September 2024 00:00
Search period end: 29 September 2024 00:00
Orbit: 529 x 541 km, 97.5° (Epoch: 18 September)

Date Brightness Start Highest point End Pass type
(mag) Time Alt. Az. Time Alt. Az. Time Alt. Az.
19 Sep ? 02:43:11 12° NNE 02:43:11 12° NNE 02:43:35 10° NNE visible
20 Sep ? 04:09:43 10° NNW 04:09:43 10° NNW 04:09:46 10° NNW visible
21 Sep ? 04:00:49 11° NNW 04:00:49 11° NNW 04:00:56 10° NNW visible
22 Sep ? 03:51:51 11° NNW 03:51:51 11° NNW 03:52:00 10° NNW visible
23 Sep ? 03:42:52 11° NNW 03:42:52 11° NNW 03:43:00 10° NNW visible
24 Sep ? 03:33:50 10° N 03:33:50 10° N 03:33:55 10° N visible
